Frederick, MD

10:49 AM EDT on September 19, 2017 (GMT -0400)
Frederick Municipal

Weather History for KFDK - April, 2014

Change the Weather History Date:

Friday, April 4, 2014

  Actual Average (KHGR) Record (KHGR)
Temperature  
Mean Temperature 50 °F -  
Max Temperature 55 °F 57 °F 80 °F (2011)
Min Temperature 46 °F 37 °F 22 °F (2013)
Degree Days  
Heating Degree Days 14    
Moisture  
Dew Point 46 °F    
Average Humidity 89    
Maximum Humidity 100    
Minimum Humidity 66    
Precipitation  
Precipitation 0.04 in - - ()
Sea Level Pressure  
Sea Level Pressure 29.89 in    
Wind  
Wind Speed 5 mph (NE)    
Max Wind Speed 8 mph    
Max Gust Speed -    
Visibility 7 miles    
Events Rain    
Averages and records for this station are not official NWS values.
T = Trace of Precipitation, MM = Missing Value Source: NWS Daily Summary

Daily Weather History Graph

Daily Weather History Graph

Search for Another Location

Airport or City:

Trip Planner

Search our weather history database for the weather conditions in past years. The results will help you decide how hot, cold, wet, or windy it might be!

Date:

Astronomy

Apr. 04, 2014 Rise Set
Actual Time 6:49 AM EDT 7:36 PM EDT
Civil Twilight 6:21 AM EDT 8:03 PM EDT
Nautical Twilight 5:49 AM EDT 8:35 PM EDT
Astronomical Twilight 5:16 AM EDT 9:09 PM EDT
Moon 10:05 AM EDT (4/4) No Moon Set
Length of Visible Light 13h 41m
Length of Day
12h 47m
Waxing Crescent, 25% of the Moon is Illuminated
Apr 4
Waxing Crescent
Apr 7
First Quarter
Apr 15
Full
Apr 22
Last Quarter
Apr 29
New

Hourly Weather History & Observations

Time (EDT) Temp. Windchill Dew Point Humidity Pressure Visibility Wind Dir Wind Speed Gust Speed Precip Events Conditions
12:15 AM 48.2 °F - 48.2 °F 100% 29.98 in 5.0 mi NNE 6.9 mph - N/A   Overcast
12:35 AM 48.2 °F - 48.2 °F 100% 29.98 in 5.0 mi North 3.5 mph - N/A   Overcast
12:55 AM 48.2 °F - 48.2 °F 100% 29.97 in 5.0 mi NNE 5.8 mph - N/A   Overcast
1:15 AM 48.2 °F - 48.2 °F 100% 29.98 in 5.0 mi North 8.1 mph - N/A   Overcast
1:35 AM 48.2 °F - 48.2 °F 100% 29.97 in 4.0 mi North 4.6 mph - N/A   Overcast
1:55 AM 48.2 °F - 48.2 °F 100% 29.96 in 4.0 mi NNE 6.9 mph - N/A   Overcast
2:15 AM 48.2 °F - 48.2 °F 100% 29.96 in 4.0 mi North 4.6 mph - N/A   Overcast
2:35 AM 50.0 °F - 50.0 °F 100% 29.96 in 4.0 mi North 4.6 mph - N/A   Overcast
2:55 AM 50.0 °F - 50.0 °F 100% 29.96 in 5.0 mi Calm Calm - N/A   Overcast
3:15 AM 51.8 °F - 50.0 °F 94% 29.94 in 7.0 mi East 6.9 mph - N/A   Overcast
3:35 AM 50.0 °F - 46.4 °F 87% 29.95 in 7.0 mi ENE 4.6 mph - N/A   Mostly Cloudy
3:55 AM 50.0 °F - 46.4 °F 87% 29.94 in 7.0 mi NE 4.6 mph - N/A   Overcast
4:15 AM 50.0 °F - 46.4 °F 87% 29.95 in 7.0 mi NNE 4.6 mph - N/A   Overcast
4:35 AM 50.0 °F - 46.4 °F 87% 29.96 in 7.0 mi NE 5.8 mph - N/A   Overcast
4:55 AM 50.0 °F - 46.4 °F 87% 29.94 in 7.0 mi ENE 5.8 mph - N/A   Overcast
5:15 AM 48.2 °F - 44.6 °F 87% 29.95 in 7.0 mi NE 6.9 mph - N/A   Overcast
5:35 AM 46.4 °F 43.5 °F 44.6 °F 93% 29.95 in 10.0 mi ENE 5.8 mph - N/A   Overcast
5:55 AM 46.4 °F 43.5 °F 42.8 °F 87% 29.96 in 10.0 mi NNE 5.8 mph - N/A   Overcast
6:15 AM 46.4 °F 43.5 °F 42.8 °F 87% 29.96 in 10.0 mi NNE 5.8 mph - N/A   Overcast
6:35 AM 46.4 °F 43.5 °F 42.8 °F 87% 29.96 in 10.0 mi NNE 5.8 mph - N/A   Overcast
6:45 AM 48.2 °F - 44.6 °F 87% 29.96 in 7.0 mi NNE 5.8 mph - N/A   Overcast
7:45 AM 48.2 °F - 42.8 °F 82% 29.98 in 7.0 mi North - - N/A   Overcast
8:55 AM 48.2 °F - 37.4 °F 66% 29.97 in 10.0 mi East 8.1 mph - N/A   Overcast
10:00 AM 50.0 °F - 39.2 °F 66% 29.95 in 10.0 mi ENE 5.8 mph - N/A   Overcast
10:45 AM 50.0 °F - 41.0 °F 71% 29.95 in 10.0 mi ESE 8.1 mph - N/A   Overcast
11:45 AM 51.8 °F - 42.8 °F 71% 29.94 in 10.0 mi ESE 8.1 mph - N/A   Overcast
12:45 PM 51.8 °F - 44.6 °F 76% 29.89 in 10.0 mi SE 8.1 mph - N/A   Overcast
1:45 PM 53.6 °F - 44.6 °F 72% 29.87 in 10.0 mi SE 6.9 mph - N/A   Overcast
2:45 PM 53.6 °F - 46.4 °F 77% 29.84 in 10.0 mi Calm Calm - N/A   Overcast
3:50 PM 55.4 °F - 48.2 °F 77% 29.79 in 10.0 mi SSE 8.1 mph - N/A   Overcast
5:45 PM 55.4 °F - 48.2 °F 77% 29.75 in 10.0 mi East 4.6 mph - N/A   Overcast
7:50 PM 51.8 °F - 48.2 °F 88% 29.74 in 10.0 mi Variable 3.5 mph - N/A   Mostly Cloudy
7:55 PM 53.6 °F - 48.2 °F 82% 29.74 in 10.0 mi East 4.6 mph - N/A   Mostly Cloudy
9:00 PM 51.8 °F - 50.0 °F 94% 29.76 in 7.0 mi ESE 8.1 mph - N/A Rain Rain
9:20 PM 50.0 °F - 50.0 °F 100% 29.75 in 5.0 mi NE 4.6 mph - 0.04 in Rain Rain
9:40 PM 50.0 °F - 50.0 °F 100% 29.76 in 5.0 mi North 3.5 mph - 0.04 in   Mostly Cloudy
10:00 PM 48.2 °F - 48.2 °F 100% 29.76 in 5.0 mi North 3.5 mph - N/A   Scattered Clouds
10:20 PM 46.4 °F 45.2 °F 46.4 °F 100% 29.76 in 5.0 mi North 3.5 mph - N/A   Mostly Cloudy
10:40 PM 48.2 °F - 48.2 °F 100% 29.76 in 5.0 mi North 3.5 mph - N/A   Overcast
11:00 PM 48.2 °F - 48.2 °F 100% 29.76 in 4.0 mi Calm Calm - N/A   Overcast
11:20 PM 46.4 °F 45.2 °F 46.4 °F 100% 29.75 in 4.0 mi NE 3.5 mph - N/A   Overcast
11:40 PM 48.2 °F - 48.2 °F 100% 29.77 in 4.0 mi North 3.5 mph - N/A   Overcast